Powrót do katalogu

STARLINK-32257

AktywnyŁącznośćVLEO
NORAD 62171·PAYLOAD·🇺🇸 United States

Wystrzelony Nov 30, 2024 z Vandenberg Space Force Base

Loading…

Następne Przeloty (najbliższe 24 godziny)

TLE

ŚwieżeSource: CelesTrak SupGP

Epoka: Sep 15, 2026, 03:51 UTC

1 62171C 24225J   26258.16090278  .00000723  00000+0  60623-4 0  2588
2 62171  70.0018  46.5871 0002675 269.1928 305.6046 14.98322315    16

Śledź STARLINK-32257 w czasie rzeczywistym z AllMySat

Download on the App Store